CAPE
0 0 0 0 4 61 79 65 30 7 1 0 3 23 8 83 65 73 130 81 82 162 63 152 143 398 625 811 706 479 222 82
0 0 0 0 0 0 83 123 104 52 25 1 1 11 14 32 57 98 60 60 34 82 17 20 62 282 522 596 456 383 197 101
0 0 0 0 0 0 0 26 55 53 40 3 0 0 7 15 67 122 108 86 0 30 20 6 17 127 389 516 466 299 163 68
0 0 0 0 0 0 0 0 2 71 50 22 5 0 23 35 46 119 177 120 2 0 0 13 4 66 320 381 347 241 145 78
0 0 0 0 0 0 0 0 0 12 19 31 16 2 31 40 73 180 121 148 6 0 0 0 5 64 238 205 204 168 175 124
0 0 0 0 0 0 0 0 0 0 10 72 48 10 53 69 101 211 223 209 43 0 0 0 0 63 273 209 220 255 219 256
0 0 0 0 0 0 0 0 0 0 7 127 184 103 109 133 203 287 333 265 132 31 4 0 4 212 250 241 282 257 298 324
0 0 0 0 0 0 0 0 0 0 1 147 256 269 290 222 243 352 351 333 232 143 52 58 78 402 322 320 348 261 323 339
0 0 0 0 0 0 0 0 0 0 0 51 212 314 405 446 415 390 419 370 284 169 147 75 290 401 417 369 341 395 273 5
0 0 0 0 0 0 0 0 0 0 10 153 316 391 393 473 526 580 563 475 297 226 132 170 375 357 380 352 324 233 39 0
0 0 0 0 0 0 0 0 0 0 97 266 304 348 332 480 645 724 686 534 429 392 375 378 390 359 386 323 216 59 0 0
0 0 0 0 0 0 0 0 0 0 120 293 349 319 330 523 681 741 726 587 559 469 446 467 367 331 362 182 1 0 0 0
0 0 0 0 0 0 0 0 0 0 120 280 386 470 402 454 626 728 700 555 584 531 456 296 365 241 54 0 0 0 0 0
0 0 0 0 1 10 10 0 0 89 313 399 469 533 456 612 692 762 426 290 348 326 320 291 97 0 0 0 0 0 0 0
0 0 0 34 207 335 340 339 337 472 529 504 498 551 521 573 535 352 337 230 276 289 139 9 0 0 0 0 0 0 0 0
0 0 86 491 752 740 676 705 742 697 502 400 292 320 341 251 300 270 224 193 135 2 4 0 0 0 0 0 0 0 0 0
0 142 727 951 920 868 843 860 734 527 374 295 246 255 300 206 69 53 42 5 0 0 0 0 0 0 0 0 0 14 13 4
30 537 910 792 816 724 628 603 616 429 338 308 275 225 154 62 40 45 2 0 0 0 0 0 0 0 0 0 8 10 13 1
341 626 608 611 628 566 454 411 321 281 262 117 65 32 23 8 2 0 0 0 0 0 0 0 0 0 0 0 1 5 7 0
535 555 565 640 594 306 182 67 16 0 0 0 0 0 0 4 0 0 0 0 0 0 0 0 0 0 0 0 4 22 2 0
CIN
-0 -0 -0 -0 -117 -237 -336 -473 -582 -655 -109 -0 -503 -767 -781 -749 -737 -722 -675 -648 -598 -505 -508 -407 -386 -256 -173 -121 -132 -184 -240 -294
-0 -0 -0 -0 -0 -0 -278 -430 -504 -642 -690 -532 -386 -797 -823 -802 -790 -750 -772 -715 -656 -572 -580 -533 -480 -332 -208 -173 -200 -211 -250 -264
-0 -0 -0 -0 -0 -0 -0 -354 -419 -518 -602 -491 -0 -0 -750 -862 -816 -793 -737 -719 -0 -634 -591 -571 -559 -405 -279 -189 -187 -223 -252 -273
-0 -0 -0 -0 -0 -0 -0 -0 -269 -536 -555 -630 -463 -0 -832 -857 -846 -792 -701 -707 -125 -0 -52 -525 -556 -436 -260 -203 -183 -207 -234 -251
-0 -0 -0 -0 -0 -0 -0 -0 -0 -466 -453 -580 -692 -634 -864 -862 -850 -761 -739 -739 -243 -0 -0 -0 -486 -380 -248 -248 -221 -223 -183 -196
-0 -0 -0 -0 -0 -0 -0 -0 -0 -0 -416 -573 -691 -829 -844 -824 -834 -802 -721 -717 -686 -0 -0 -0 -0 -322 -264 -228 -175 -135 -118 -90
-0 -0 -0 -0 -0 -0 -0 -0 -0 -0 -548 -637 -668 -802 -793 -811 -813 -759 -661 -639 -609 -632 -284 -234 -175 -291 -240 -204 -125 -92 -45 -37
-0 -0 -0 -0 -0 -0 -0 -0 -0 -0 -33 -704 -730 -716 -751 -802 -786 -713 -646 -571 -556 -578 -548 -478 -386 -171 -159 -137 -80 -72 -43 -26
-0 -0 -0 -0 -0 -0 -0 -0 -0 -0 -0 -578 -666 -547 -698 -691 -688 -648 -573 -533 -514 -546 -509 -444 -283 -145 -105 -91 -55 -31 -25 -79
-0 -0 -0 -0 -0 -0 -0 -0 -0 -0 -570 -608 -614 -674 -691 -653 -596 -509 -494 -480 -515 -495 -426 -312 -197 -146 -85 -54 -47 -30 -30 -0
-0 -0 -0 -0 -0 -0 -0 -0 -0 -0 -619 -644 -663 -648 -642 -572 -512 -456 -429 -419 -392 -352 -310 -217 -167 -108 -49 -50 -44 -49 -0 -0
-0 -0 -0 -0 -0 -0 -0 -0 -0 -0 -648 -556 -500 -381 -359 -543 -480 -419 -380 -358 -274 -228 -218 -168 -125 -94 -46 -56 -2 -0 -0 -0
-0 -0 -0 -0 -0 -0 -0 -0 -0 -41 -653 -568 -470 -413 -463 -484 -439 -357 -309 -295 -212 -178 -163 -170 -103 -107 -108 -0 -0 -0 -0 -0
-0 -0 -0 -0 -106 -229 -258 -0 -0 -681 -586 -509 -431 -390 -432 -395 -365 -290 -323 -309 -235 -205 -180 -133 -161 -0 -0 -0 -0 -0 -0 -0
-0 -0 -0 -579 -542 -559 -584 -552 -526 -517 -469 -446 -448 -403 -388 -349 -330 -308 -253 -275 -248 -188 -213 -150 -0 -0 -0 -0 -0 -0 -0 -0
-0 -0 -525 -447 -424 -434 -446 -433 -413 -407 -435 -460 -488 -443 -384 -375 -283 -283 -267 -250 -218 -34 -100 -6 -0 -0 -0 -0 -0 -0 -0 -0
-0 -486 -384 -335 -343 -360 -358 -359 -370 -398 -430 -460 -445 -374 -304 -300 -329 -301 -263 -227 -0 -0 -0 -0 -0 -0 -0 -0 -0 -50 -65 -80
-354 -406 -325 -322 -334 -364 -376 -373 -350 -386 -396 -369 -334 -305 -292 -307 -297 -231 -116 -0 -0 -0 -0 -0 -0 -0 -0 -0 -45 -57 -55 -53
-450 -378 -364 -341 -349 -358 -380 -372 -377 -368 -349 -367 -346 -343 -331 -237 -253 -0 -0 -0 -0 -0 -0 -0 -0 -0 -0 -0 -17 -62 -51 -0
-412 -371 -355 -327 -327 -388 -405 -443 -447 -0 -0 -0 -0 -0 -0 -374 -133 -0 -0 -0 -0 -0 -0 -0 -0 -0 -0 -0 -46 -55 -34 -0
Wind_Speed
22 24 21 16 14 13 11 11 11 12 13 12 11 11 11 10 11 9 8 8 6 5 5 4 6 8 8 9 10 11 14 16
28 26 26 22 20 17 15 15 15 16 15 15 15 14 13 13 13 12 11 10 9 8 7 6 7 8 8 8 9 11 13 15
33 29 26 25 24 18 19 19 19 18 18 18 17 17 16 15 15 14 13 12 12 10 9 8 9 9 9 8 8 9 12 14
39 37 33 30 25 28 29 26 23 21 21 18 18 17 16 16 17 15 14 14 14 12 11 10 11 12 13 12 11 11 12 14
35 37 38 39 43 42 38 31 25 21 19 18 17 17 16 16 18 15 14 14 15 14 13 12 14 15 15 13 14 13 15 15
42 42 40 40 44 47 44 33 26 21 19 17 17 18 15 15 14 15 14 14 14 13 13 12 12 10 12 13 13 14 15 16
40 43 45 47 51 50 47 35 27 22 19 18 17 15 15 13 13 14 13 11 12 12 12 11 9 11 11 10 13 14 15 16
43 46 51 51 48 46 39 34 29 23 20 18 18 16 14 12 11 13 11 11 11 11 10 9 8 9 9 11 13 14 17 20
50 50 48 49 45 45 42 35 31 22 18 15 15 15 14 13 12 11 10 10 9 9 8 6 4 6 9 12 14 16 19 20
46 49 45 44 45 43 39 35 27 19 15 14 16 13 15 14 12 11 9 8 8 7 5 4 3 7 10 11 12 18 19 16
42 39 38 41 43 43 39 31 23 17 13 9 12 10 13 12 12 11 10 7 5 5 3 3 5 7 9 9 12 14 15 15
38 37 41 44 46 40 37 29 19 12 9 8 8 10 11 12 10 9 6 7 4 2 2 4 5 7 9 11 13 13 11 12
45 48 48 45 43 41 34 22 14 9 6 4 5 9 10 8 5 3 4 5 4 2 2 4 6 8 11 12 12 8 8 12
35 35 32 34 30 25 17 11 8 3 2 1 2 2 3 2 2 1 1 3 4 4 4 6 8 10 12 9 8 7 8 10
32 29 27 22 16 14 10 7 5 3 2 2 2 3 4 5 4 3 1 4 4 4 6 8 9 10 7 8 7 8 8 9
29 22 16 12 10 9 7 7 6 5 6 5 5 6 6 5 5 4 4 4 4 5 7 8 8 7 8 8 8 8 8 7
20 12 9 8 9 7 8 9 8 8 8 8 8 8 7 7 8 7 6 6 6 6 7 7 7 8 8 8 8 9 9 8
9 5 6 8 8 8 8 9 10 10 10 10 9 8 8 9 9 8 7 7 8 8 9 8 8 9 9 8 8 8 8 8
2 4 7 7 8 8 9 10 11 11 11 11 11 10 9 9 9 8 8 8 9 10 10 10 10 10 9 8 7 7 8 10
5 7 7 7 9 9 11 12 13 13 12 13 12 10 9 9 8 8 9 9 10 11 10 11 11 9 8 7 8 7 10 14
Wind_Direction
308 312 307 302 309 304 280 272 271 270 269 279 270 263 263 253 247 251 268 270 271 270 272 295 323 334 343 352 356 3 4 1
296 300 302 302 304 298 299 296 286 275 277 275 267 267 260 251 246 253 264 270 274 276 276 280 306 321 327 334 343 347 351 353
291 293 294 302 304 303 301 301 294 282 275 280 270 263 257 252 258 254 265 268 263 265 271 276 296 313 316 323 327 337 342 344
286 290 291 295 299 302 304 300 293 288 277 276 268 263 260 263 262 260 259 269 268 265 270 273 294 309 318 321 325 330 334 337
286 286 288 292 295 300 304 303 296 287 277 272 269 269 266 262 267 263 257 256 260 268 273 285 299 308 313 319 323 329 330 331
283 284 289 294 296 298 301 303 300 290 278 272 276 275 267 261 256 265 260 266 267 268 266 275 289 295 309 315 322 326 327 329
286 286 289 293 292 293 296 302 299 293 284 279 274 280 268 257 264 273 276 273 264 256 263 272 282 298 317 317 325 326 327 327
286 285 287 291 292 293 298 300 300 299 294 284 281 279 277 269 265 278 277 278 273 261 270 280 294 303 315 326 327 329 328 328
282 283 284 284 289 289 289 295 299 300 291 282 279 270 274 274 278 279 275 283 272 259 273 269 276 298 316 326 332 330 329 332
283 280 282 282 283 286 291 297 301 298 290 284 294 282 286 283 286 286 285 276 272 260 264 255 292 317 325 331 334 332 334 340
285 285 285 282 283 284 295 301 298 293 294 293 305 305 301 289 283 290 292 283 257 245 246 290 309 323 330 336 336 336 340 346
284 283 279 278 273 292 294 296 293 287 276 274 277 289 291 291 290 293 286 280 263 271 272 319 325 335 337 339 340 342 356 355
274 269 261 260 281 287 295 298 293 273 252 252 272 301 308 303 298 292 309 313 304 312 320 337 339 340 340 341 348 7 18 4
275 256 280 287 298 305 311 318 311 265 238 247 294 322 336 352 100 104 35 353 336 342 357 346 347 342 342 358 13 31 38 23
254 275 292 306 319 328 335 352 5 61 73 86 50 55 78 97 106 90 45 343 358 9 356 350 347 350 11 18 30 29 44 48
264 289 313 331 351 4 30 36 56 50 73 64 57 70 73 73 86 83 82 74 38 17 3 9 14 26 25 27 33 36 46 58
284 313 338 13 30 30 45 53 57 66 66 65 70 71 71 80 84 80 74 54 38 28 33 36 39 35 33 60 69 41 46 68
293 345 27 38 37 50 43 53 63 65 65 68 70 68 70 77 81 80 63 47 33 47 52 43 41 48 59 77 66 48 63 101
6 65 61 50 54 57 56 62 64 65 69 69 68 66 68 70 71 59 45 32 48 67 61 42 47 48 76 69 101 87 114 120
85 87 71 62 67 64 72 73 74 69 66 68 66 62 61 60 46 45 50 39 57 61 41 25 46 104 88 71 43 68 130 151